星链-31017 (STARLINK-31017 )

导读

STARLINK-31017是美国太空探索技术公司SpaceX星链星座的卫星,于2023年12月7日发射入轨。星链计划旨在近地轨道部署上万颗卫星,为全球提供高速互联网服务。STARLINK-31017采用平板设计,搭载霍尔推进器,具备自主避撞能力,服役结束后会主动离轨坠入大气层烧毁,助力星链完成全球覆盖的组网目标,是星链星座构建低轨通信网络的重要组成部分。

基本信息
目录编号:
58515
目录名称:
STARLINK-31017
国际标识:
2023-191H
轨道中心:
EARTH
卫星名称:
星链-31017
卫星全名:
星链-31017 (STARLINK-31017 )
卫星状态:
在轨 (已飞行924 天)
发射日期:
2023-12-07 UTC
国别 :
美国 (US)
星等 :
--
轨道信息
数据来源 国际轨道数据
星历时间: 2026-06-18T06:57:47+0800
8小时前
查看轨道信息
半长轴: 6861.19km
偏心率: 0.0001501
轨道倾角: 43.005°
近地点辐角 288.216°
升交点赤经 24.908°
平近点角 71.853°
近地点: 482.023km
远地点: 484.083km
周期: 94.267分钟
每日圈数: 15.27579
详细信息
固有亮度:
5
最大亮度:
0.3
卫星平台:
Starlink v2.0 mini
覆盖范围:
全球
运营商:
太空探索技术公司
运营商所在国:
美国
制造商(研发单位):
太空探索技术公司
制造商所在国:
美国
使用方式:
暂无
卫星简介
星链(Starlink)计划是由太空探索技术公司(SpaceX)提出的一个巨型低轨卫星互联网星座项目,计划在2019年至2024年间在太空搭建由约1.2万颗卫星组成的“星链”网络,其中1584颗将部署在地球上空550千米处的近地轨道,并从2020年开始工作。该卫星仍在工作。
2D轨道图
3D轨道图
轨道高度分析图
轨道倾角分析图
轨道综合分析图
查看轨道综合分析图